User: anonymous   Login
Location: Heisede
(52.2582°N, 9.8523°E)
Time: 22:54:38
(UTC+00:00)
Language:

Cosmos 1140 Rocket - Orbit

View from above orbital plane
View from above orbital plane
View from above satellite
View from above satellite

Ground track
Ground track

The orbit is defined by the following mean orbital elements,

1 11574U          26064.51458021 +.00000000 +00000-0 +12143-3 0 00009
2 11574  74.0672  98.7734 0017140 271.8665  88.0529 14.42347568    08
Epoch (UTC): 05 March 2026 12:20:59
Eccentricity: 0.0017140
inclination: 74.0672°
perigee height: 739 km
apogee height: 763 km
right ascension of ascending node: 98.7734°
argument of perigee: 271.8665°
revolutions per day: 14.42347568
mean anomaly at epoch: 88.0529°

The dashed part of the orbit path shows where the satellite is in the earth's shadow,  

DLR